Location: Narrabri
(30.3170°S, 149.7830°E)
Time: 23:20:02
(UTC+10:00)

ISS - Visible Passes

Search period start: 24 April 2017 00:00
Search period end: 04 May 2017 00:00
Orbit: 400 x 409 km, 51.6° (Epoch: 24 April)

Date Brightness Start Highest point End Pass type
(mag) Time Alt. Az. Time Alt. Az. Time Alt. Az.
24 Apr -0.4 04:04:53 12° E 04:04:53 12° E 04:05:14 10° ENE visible
24 Apr -2.0 05:37:36 15° WNW 05:38:33 16° NW 05:40:43 10° NNW visible
25 Apr -1.7 04:48:19 19° N 04:48:19 19° N 04:49:31 10° NNE visible
25 Apr -0.5 19:42:17 10° NW 19:42:22 11° NW 19:42:22 11° NW visible
26 Apr -3.1 18:50:15 10° NNW 18:52:58 39° NNE 18:52:58 39° NNE visible
27 Apr -2.1 17:58:53 10° N 18:01:14 18° NE 18:03:28 11° E visible
27 Apr -1.1 19:34:38 10° W 19:36:10 20° W 19:36:10 20° W visible
28 Apr -3.4 18:41:55 10° NW 18:45:11 59° SW 18:46:32 31° SSE visible
29 Apr -3.6 17:49:40 10° NNW 17:52:54 56° NE 17:56:11 10° SE visible
29 Apr -0.8 19:28:07 10° WSW 19:29:27 12° SW 19:29:27 12° SW visible
30 Apr -1.6 18:34:26 10° W 18:37:06 22° SW 18:39:34 11° SSE visible
02 May -0.8 18:28:36 10° SW 18:29:10 10° SSW 18:29:42 10° SSW visible
